TimeMST,TemperatureF,Dew PointF,Humidity,Sea Level PressureIn,VisibilityMPH,Wind Direction,Wind SpeedMPH,Gust SpeedMPH,PrecipitationIn,Events,Conditions,WindDirDegrees,DateUTC
12:53 AM,35.1,30.0,82,30.16,10.0,West,10.4,-,N/A,,Clear,260,2012-11-06 07:53:00
1:53 AM,34.0,28.9,82,30.17,10.0,WSW,12.7,-,N/A,,Clear,250,2012-11-06 08:53:00
2:53 AM,32.0,28.0,85,30.19,10.0,WSW,10.4,-,N/A,,Clear,250,2012-11-06 09:53:00
3:53 AM,30.9,27.0,85,30.21,10.0,WSW,6.9,-,N/A,,Clear,240,2012-11-06 10:53:00
4:53 AM,30.0,27.0,88,30.22,10.0,WSW,8.1,-,N/A,,Clear,240,2012-11-06 11:53:00
5:53 AM,28.9,26.1,89,30.24,10.0,WSW,11.5,-,N/A,,Clear,250,2012-11-06 12:53:00
6:53 AM,28.0,25.0,88,30.25,10.0,WSW,9.2,-,N/A,,Clear,250,2012-11-06 13:53:00
7:53 AM,28.9,26.1,89,30.26,10.0,WSW,9.2,-,N/A,,Clear,250,2012-11-06 14:53:00
8:53 AM,34.0,28.0,79,30.25,10.0,WSW,9.2,-,N/A,,Clear,250,2012-11-06 15:53:00
9:53 AM,39.9,30.0,68,30.25,10.0,West,10.4,-,N/A,,Clear,260,2012-11-06 16:53:00
10:53 AM,45.0,30.9,58,30.23,10.0,WSW,11.5,-,N/A,,Clear,250,2012-11-06 17:53:00
11:53 AM,48.0,30.0,50,30.21,10.0,WSW,12.7,-,N/A,,Overcast,250,2012-11-06 18:53:00
12:53 PM,50.0,27.0,41,30.19,10.0,West,11.5,-,N/A,,Mostly Cloudy,270,2012-11-06 19:53:00
1:53 PM,-9999,-9999,N/A,30.12,-9999.0,SW,10.4,-,N/A,,Unknown,230,2012-11-06 20:53:00
2:53 PM,52.0,27.0,38,30.16,10.0,West,6.9,-,N/A,,Overcast,260,2012-11-06 21:53:00
3:53 PM,48.9,26.1,41,30.15,10.0,SW,6.9,-,N/A,,Partly Cloudy,220,2012-11-06 22:53:00
4:53 PM,44.1,26.1,49,30.14,10.0,WSW,3.5,-,N/A,,Scattered Clouds,240,2012-11-06 23:53:00
5:53 PM,42.1,28.0,58,30.14,10.0,Calm,Calm,-,N/A,,Scattered Clouds,0,2012-11-07 00:53:00
6:53 PM,36.0,28.0,73,30.13,10.0,NE,5.8,-,N/A,,Scattered Clouds,40,2012-11-07 01:53:00
7:53 PM,35.1,27.0,72,30.11,10.0,NE,6.9,-,N/A,,Clear,50,2012-11-07 02:53:00
8:53 PM,33.1,27.0,78,30.08,10.0,ENE,8.1,-,N/A,,Clear,60,2012-11-07 03:53:00
9:53 PM,32.0,27.0,82,30.06,10.0,East,5.8,-,N/A,,Clear,80,2012-11-07 04:53:00
10:53 PM,32.0,27.0,82,30.04,10.0,ENE,9.2,-,N/A,,Clear,60,2012-11-07 05:53:00
11:53 PM,33.1,27.0,78,30.00,10.0,NE,9.2,-,N/A,,Scattered Clouds,50,2012-11-07 06:53:00